Ahmedabad, India

11:14 AM IST on May 23, 2017 (GMT +0530)
Ahmedabad

Weather History for VAAH - January, 2013

Change the Weather History Date:

Monday, January 28, 2013

  Actual Average Record
Temperature  
Mean Temperature 68 °F -  
Max Temperature 83 °F 85 °F 93 °F (2007)
Min Temperature 54 °F 58 °F 48 °F (2002)
Cooling Degree Days 4    
Growing Degree Days 18 (Base 50)    
Moisture  
Dew Point 40 °F    
Average Humidity 39    
Maximum Humidity 63    
Minimum Humidity 14    
Precipitation  
Precipitation 0.00 in 0.00 in - ()
Sea Level Pressure  
Sea Level Pressure 29.96 in    
Wind  
Wind Speed 6 mph ()    
Max Wind Speed 10 mph    
Max Gust Speed -    
Visibility 2.8 miles    
Events      
Averages and records for this station are not official NWS values.
T = Trace of Precipitation, MM = Missing Value Source: Averaged Metar Reports

Daily Weather History Graph

Daily Weather History Graph

Search for Another Location

Airport or City:

Trip Planner

Search our weather history database for the weather conditions in past years. The results will help you decide how hot, cold, wet, or windy it might be!

Date:

Astronomy

Jan. 28, 2013 Rise Set
Actual Time 7:20 AM IST 6:24 PM IST
Civil Twilight 6:57 AM IST 6:48 PM IST
Nautical Twilight 6:29 AM IST 7:15 PM IST
Astronomical Twilight 6:03 AM IST 7:42 PM IST
Moon 7:35 PM IST (1/28) 7:44 AM IST (1/28)
Length of Visible Light 11h 50m
Length of Day
11h 03m
Full, 99% of the Moon is Illuminated
Jan 28
Full
Feb 3
Last Quarter
Feb 10
New
Feb 18
First Quarter
Feb 26
Full

Hourly Weather History & Observations

Time (IST) Temp. Dew Point Humidity Pressure Visibility Wind Dir Wind Speed Gust Speed Precip Events Conditions
12:10 AM 60.8 °F 35.6 °F 39% 29.98 in 2.5 mi NE 4.6 mph - N/A   Smoke
12:40 AM 57.2 °F 37.4 °F 48% 29.98 in 2.5 mi NNE 4.6 mph - N/A   Smoke
1:10 AM 55.4 °F 37.4 °F 51% 29.98 in 2.5 mi NNE 3.5 mph - N/A   Smoke
1:40 AM 55.4 °F 35.6 °F 47% 29.98 in 2.5 mi NNE 3.5 mph - N/A   Smoke
2:10 AM 55.4 °F 37.4 °F 51% 29.98 in 2.5 mi NE 5.8 mph - N/A   Smoke
2:30 AM 59 °F 40 °F 37% 30.00 in 2 mi North 2.3 mph - -  
2:40 AM 55.4 °F 33.8 °F 44% 29.95 in 2.5 mi NE 8.1 mph - N/A   Smoke
3:10 AM 55.4 °F 33.8 °F 44% 29.95 in 2.5 mi NE 6.9 mph - N/A   Smoke
3:40 AM 53.6 °F 35.6 °F 51% 29.95 in 2.5 mi NNE 6.9 mph - N/A   Smoke
4:10 AM 53.6 °F 35.6 °F 51% 29.95 in 2.5 mi NNE 8.1 mph - N/A   Smoke
4:40 AM 57.2 °F 33.8 °F 41% 29.95 in 2.5 mi NE 9.2 mph - N/A   Smoke
5:10 AM 55.4 °F 35.6 °F 47% 29.95 in 2.5 mi NNE 9.2 mph - N/A   Smoke
5:30 AM 59 °F 40 °F 37% 29.98 in 2 mi North 2.3 mph - -   Clear
5:40 AM 55.4 °F 33.8 °F 44% 29.95 in 2.5 mi NNE 8.1 mph - N/A   Smoke
6:10 AM 55.4 °F 35.6 °F 47% 29.95 in 2.5 mi NNE 9.2 mph - N/A   Smoke
6:40 AM 53.6 °F 35.6 °F 51% 29.98 in 2.5 mi North 8.1 mph - N/A   Smoke
7:10 AM 55.4 °F 35.6 °F 47% 29.98 in 2.5 mi North 9.2 mph - N/A   Smoke
8:30 AM 60 °F 40 °F 35% 30.04 in 2 mi NNE 4.6 mph - -   Clear
11:30 AM 75 °F 41 °F 19% 30.06 in 2 mi NE 5.8 mph - -   Clear
12:10 PM 77.0 °F 41.0 °F 28% 30.04 in 3.7 mi ENE 10.4 mph - N/A   Unknown
12:40 PM 78.8 °F 41.0 °F 26% 29.98 in 3.7 mi ENE 10.4 mph - N/A   Unknown
1:10 PM 80.6 °F 41.0 °F 24% 29.98 in 3.7 mi East 9.2 mph - N/A   Unknown
1:40 PM 82.4 °F 42.8 °F 25% 29.95 in 3.7 mi ESE 6.9 mph - N/A   Unknown
2:10 PM 82.4 °F 42.8 °F 25% 29.95 in 3.7 mi East 8.1 mph - N/A   Unknown
2:30 PM 82 °F 45 °F 17% 29.97 in 2 mi East 6.9 mph - -  
2:40 PM 84.2 °F 44.6 °F 25% 29.92 in 3.7 mi East 10.4 mph - N/A   Unknown
3:10 PM 84.2 °F 44.6 °F 25% 29.92 in 3.7 mi East 9.2 mph - N/A   Unknown
3:40 PM 82.4 °F 44.6 °F 26% 29.92 in 3.7 mi NE 9.2 mph - N/A   Unknown
4:10 PM 82.4 °F 41.0 °F 23% 29.92 in 3.7 mi ENE 9.2 mph - N/A   Unknown
4:40 PM 82.4 °F 41.0 °F 23% 29.92 in 3.7 mi East 6.9 mph - N/A   Unknown
5:10 PM 82.4 °F 41.0 °F 23% 29.92 in 3.7 mi East 6.9 mph - N/A   Unknown
5:30 PM 81 °F 41 °F 14% 29.94 in 2 mi NE 5.8 mph - -  
5:40 PM 82.4 °F 41.0 °F 23% 29.92 in 3.7 mi East 4.6 mph - N/A   Unknown
6:10 PM 78.8 °F 39.2 °F 24% 29.92 in 3.7 mi ENE 3.5 mph - N/A   Unknown
7:40 PM 71.6 °F 42.8 °F 35% 29.92 in 2.5 mi ENE 4.6 mph - N/A   Smoke
8:10 PM 68.0 °F 41.0 °F 37% 29.95 in 2.5 mi ENE 5.8 mph - N/A   Smoke
8:30 PM 65 °F 50 °F 48% 29.97 in 2 mi Calm Calm - -  
8:40 PM 66.2 °F 42.8 °F 43% 29.95 in 2.5 mi NE 5.8 mph - N/A   Smoke
9:10 PM 64.4 °F 44.6 °F 49% 29.95 in 2.5 mi NE 4.6 mph - N/A   Smoke
9:40 PM 62.6 °F 44.6 °F 52% 29.98 in 2.5 mi NE 4.6 mph - N/A   Smoke
10:10 PM 62.6 °F 46.4 °F 55% 29.98 in 2.5 mi NE 4.6 mph - N/A   Smoke
10:40 PM 60.8 °F 46.4 °F 59% 29.98 in 2.5 mi NNE 4.6 mph - N/A   Smoke
11:10 PM 59.0 °F 44.6 °F 59% 29.98 in 2.5 mi NE 3.5 mph - N/A   Smoke
11:30 PM 59 °F 48 °F 58% 30.00 in 2 mi Calm Calm - -   Haze
11:40 PM 57.2 °F 44.6 °F 63% 29.98 in 2.5 mi NE 3.5 mph - N/A   Smoke